SAUDICOMSAT 3

Last updated on Fri Dec 29 2023 00:03:02 GMT+0000 (Greenwich Mean Time)

1 31125U 07012J 23361.83516471 .00002054 00000+0 36995-3 0 9997 2 31125 98.1926 312.1007 0042529 24.9328 335.3917 14.67093218892330
UTC large
Height (km)
Speed (km/s)
/
Latitude / Longitude
Inclination (degrees)
Orbital Period (minutes)
Azimuth
Elevation
Range (km)
Doppler Factor

Next 0 passes for location: London (51.5072 / 0.1276)

Sorry there are no passes over London.